Zurück zum Katalog

IRIDIUM 33 DEB

AktivPO
NORAD 36012·DEBRIS·🇺🇸 United States

Gestartet Sep 14, 1997 von Baikonur Cosmodrome

Loading…

Nächste Überflüge (nächste 24 Stunden)

TLE

AktuellSource: Space-Track

Epoche: Sep 13, 2026, 19:22 UTC

1 36012U 97051UT  26256.80703615  .00006431  00000-0  22549-2 0  9993
2 36012  86.4408 196.3147 0223023 101.0632 261.5726 14.21905325693908

Verfolge IRIDIUM 33 DEB in Echtzeit mit AllMySat

Download on the App Store